map of OTP home
OTP - Airport
Location
City:  Bucharest, Ilfov, Romania
Name:Henri Coanda International Airport
Old (Alt.):Otopeni
ICAO:LROP
IATA:OTP

Details
Type:Airport (Aerodrome, Airfield)
Use:Public/Civil, Military, International (customs port of entry)
Latitude:4434'20"N (44.572161)
Longitude:2606'08"E (26.102178)
Datum:WGS 1984
Elevation:314 ft (96 m)
Variation:5.56E (WMM2015 magnetic declination)
0.11 annual change
Runways:2
Longest:11484 × 148 ft (3500 × 45 m), paved

Time
Time Zone:UTC+2 (DST+3)
Local Time:

Weather
METAR:LROP 260030Z VRB02KT 5000 BR FEW003 17/17 Q1004 BECMG 9999 NSW
TAF:LROP 252300Z 2600/2624 VRB04KT 0800 FG VV002 PROB30
TEMPO 2600/2604 0300 FG VV001
BECMG 2604/2605 1500 BR NSC
BECMG 2605/2607 CAVOK
TEMPO 2619/2624 5000 -SHRA SCT045CB

Related Locations
Nearby:
Farthest:CHT: 11322 mi / 18221 km
Waitangi [Tuuta], CIT, NZ

Find:

   beyond  
but within

Other Information
Maps:
NOTAMs:
Links:
Sources:

  
flag of Romania
flag of Bucharest
  

Sectional Chart

Flight Planning
at skyvector.com

Satellite Image

Google Maps Satellite view

 

Copyright © 2004-2017 Karl L. Swartz. All rights reserved.
The Great Circle Mapper name and logo are trademarks of the Great Circle Mapper.
All other trademarks mentioned herein belong to their respective owners.
Please see credits for attibutions and further copyright information.

  Follow gcmap on Facebook Follow gcmap on Twitter Follow gcmap on Google+ GCmap on LinkedIn

hCard Microformat

Geo Microformat